Wind_Speed
84 85 87 88 90 91 93 95 96 97 98 100 102 104 105 108 110 111 113 114 114 114 113 111 109 107 104 101 97 94 91 88 84 81 78 75 72 69 66 63 60 57 54 51 49 47 45 43 41 40 39 38 37 36 35 34 33 33 32 33 33 34 35 36 38 39 40 41 42 43 44 45 45 46 47 47 48 48 49 49 49 48 48 48 48 47
86 88 89 91 92 93 95 97 98 99 101 103 105 107 109 111 113 114 114 114 112 111 108 105 102 99 96 92 88 84 81 78 75 72 69 66 63 61 58 55 52 50 48 46 44 43 41 40 39 38 37 36 35 34 33 32 31 31 32 32 33 35 36 37 38 39 40 41 42 43 44 45 46 47 47 48 48 49 49 50 50 50 50 50 49 49
88 90 91 93 94 95 97 99 100 102 104 107 109 111 112 113 114 113 112 110 107 105 101 97 93 90 86 82 79 75 71 69 66 64 61 59 56 53 51 49 47 45 44 43 42 41 40 39 38 37 36 34 33 32 31 31 31 31 32 33 34 35 36 36 37 38 39 40 42 43 45 46 47 47 48 48 49 49 50 50 51 51 51 51 51 51
90 92 93 95 96 97 99 101 103 106 108 110 112 113 114 113 112 110 107 103 100 96 93 89 84 80 76 73 69 66 63 60 58 56 54 52 50 48 46 45 44 43 42 42 41 40 39 38 36 35 34 32 31 31 30 30 31 32 32 33 34 34 35 35 36 37 38 40 42 43 44 46 47 47 48 48 49 49 50 50 51 51 52 52 52 52
92 93 95 97 98 100 102 104 107 109 111 113 113 113 112 110 107 104 100 96 92 87 83 79 75 71 67 64 61 58 55 54 52 51 49 47 46 45 43 43 42 42 42 41 40 39 37 36 35 33 32 31 30 30 30 31 32 32 33 34 34 34 34 34 35 37 38 40 41 43 44 45 46 47 48 48 49 49 50 50 51 51 51 52 52 52
94 95 97 99 100 103 105 108 110 112 113 113 112 110 107 104 100 96 92 88 83 79 74 70 66 62 59 56 54 51 50 49 48 47 45 44 43 42 42 42 42 41 41 40 39 37 36 34 33 32 31 30 30 30 31 32 32 33 33 33 33 33 34 35 36 38 39 40 41 42 43 44 44 45 46 47 48 48 49 50 50 50 51 51 52 52
96 98 99 101 104 106 109 111 112 112 112 110 108 105 101 97 92 87 83 79 74 70 66 61 57 54 51 49 48 47 46 45 44 44 43 42 42 41 41 41 41 40 39 38 37 36 34 33 32 31 30 30 31 31 32 33 33 34 33 33 33 33 34 36 37 38 39 40 41 41 42 42 43 43 44 45 46 47 48 48 49 50 50 51 52 52
98 100 102 105 107 110 111 112 112 111 108 105 101 98 94 89 85 79 74 69 65 61 57 54 51 48 46 45 44 44 43 43 42 42 41 41 41 41 40 40 40 39 38 37 36 35 33 32 31 31 31 31 32 33 33 34 34 33 33 32 33 34 35 36 38 39 39 40 40 41 41 42 43 43 44 45 45 46 47 48 49 50 51 51 52 53
101 103 106 108 110 111 111 111 110 107 103 98 93 89 84 80 77 72 67 61 56 52 49 47 46 44 43 42 42 42 42 42 41 41 40 40 40 40 39 39 38 38 37 36 35 34 33 32 32 32 32 33 33 34 34 34 33 33 32 33 33 35 36 37 38 39 39 40 41 41 42 43 44 44 45 46 46 47 48 49 50 50 51 52 53 53
104 107 109 111 112 111 109 106 104 101 96 91 86 81 76 70 66 63 59 55 50 46 44 42 42 41 41 41 41 41 41 41 41 40 40 40 39 39 38 38 37 37 36 36 35 34 34 33 33 33 33 34 34 34 34 33 32 32 32 33 34 36 37 38 38 39 40 41 42 42 43 44 45 46 46 47 48 49 49 50 51 51 52 52 52 53
108 110 111 111 111 109 105 101 97 93 88 83 78 74 69 63 58 54 51 48 45 42 40 40 39 40 40 41 41 41 41 40 40 40 40 39 38 38 37 37 37 36 36 35 35 35 34 34 34 34 35 35 35 35 34 33 32 32 32 34 35 36 38 38 39 40 41 42 43 44 44 45 46 47 48 48 49 50 50 50 51 51 51 51 51 50
111 112 111 110 107 104 100 95 90 85 79 73 69 65 62 57 52 47 44 42 40 39 38 38 39 39 40 40 41 40 40 40 39 39 38 38 37 37 37 36 36 36 35 35 35 35 35 35 35 35 35 35 35 34 33 32 31 32 33 35 36 37 38 39 40 41 42 43 44 45 45 46 47 47 48 49 49 49 49 49 49 48 48 48 47 47
112 111 109 106 102 97 91 86 82 76 71 66 61 57 54 51 47 43 40 39 38 37 37 38 38 39 40 40 40 40 40 39 38 38 37 36 36 36 36 35 35 35 35 35 35 35 35 36 36 36 36 35 34 33 32 31 32 33 34 36 37 38 39 40 41 42 43 44 45 45 46 47 47 47 48 48 48 47 47 47 46 45 44 44 44 43
111 108 104 100 95 89 83 77 72 67 63 59 54 51 48 45 42 40 38 38 37 37 37 38 38 39 40 40 40 40 39 38 37 36 36 35 35 35 35 35 34 34 34 35 35 35 35 36 36 35 35 35 34 33 32 32 32 34 35 37 38 39 40 41 42 43 44 45 46 46 46 46 46 46 46 46 45 45 44 43 43 42 41 41 40 40
107 102 97 92 86 80 74 69 64 60 56 52 49 46 43 41 40 38 38 38 38 38 38 38 38 38 38 39 39 39 39 38 37 35 34 34 34 35 35 35 34 34 34 34 35 35 35 35 35 35 34 34 33 32 32 32 33 35 36 37 38 39 40 41 43 44 45 45 46 46 46 46 45 45 44 43 43 42 41 40 40 39 38 38 38 37
101 95 89 83 77 71 66 61 56 53 50 47 45 42 40 39 39 39 38 38 38 38 38 38 38 37 37 37 38 38 38 38 36 35 34 33 33 34 35 35 34 33 33 34 35 35 35 34 34 34 34 33 32 32 32 33 34 35 37 38 39 40 41 42 43 44 45 46 46 45 45 44 44 43 42 41 40 39 38 38 37 36 36 36 35 35
93 87 80 74 68 63 59 54 51 48 46 43 42 40 39 39 39 39 39 39 39 39 38 38 37 37 36 35 36 37 38 38 37 35 34 33 33 33 34 34 34 33 33 34 34 34 34 34 34 34 33 33 32 32 33 34 35 36 37 38 39 40 41 42 43 44 45 45 45 44 43 42 41 40 39 38 37 37 36 35 35 34 34 34 34 34
85 78 71 66 61 56 52 49 47 45 43 41 40 40 40 40 40 40 40 40 40 39 38 38 37 37 36 35 35 36 37 37 37 35 34 33 33 33 34 34 34 34 34 34 34 34 34 34 34 34 33 33 32 33 33 35 36 37 38 38 39 40 41 42 43 44 45 44 44 43 41 40 39 38 37 36 35 35 34 34 33 33 33 33 33 33
76 70 63 58 54 51 48 45 43 42 42 41 40 40 40 40 40 40 40 40 39 39 38 37 36 36 36 35 36 36 37 37 36 36 34 33 32 33 34 34 34 34 34 35 35 35 35 35 35 34 34 33 33 33 34 35 36 37 38 38 39 40 41 42 43 44 44 43 42 41 39 38 37 36 35 34 34 33 33 32 32 33 33 33 33 33
68 62 57 52 49 47 45 43 42 42 41 41 41 41 40 40 40 40 39 39 38 38 37 36 36 35 35 35 36 36 37 37 37 36 35 33 33 33 34 34 34 34 34 35 35 36 36 36 35 35 35 34 34 34 35 36 37 37 38 38 39 40 41 42 43 43 43 42 40 38 37 36 35 34 34 33 33 32 32 32 32 32 32 32 32 32
60 56 52 49 46 44 43 43 42 42 42 42 42 41 41 40 39 39 38 38 38 37 36 36 35 35 35 35 35 36 37 37 37 36 34 33 33 33 34 34 34 34 35 35 36 36 36 36 36 36 35 35 34 35 35 36 37 37 38 39 39 40 41 42 43 43 41 40 38 36 35 34 34 33 32 32 32 31 31 31 31 32 32 32 32 32
54 51 48 46 44 43 43 43 43 43 43 43 42 42 41 40 39 38 38 38 37 37 36 35 35 35 35 35 35 36 37 37 37 36 35 33 33 33 34 35 35 35 35 36 36 37 37 37 37 37 36 35 35 35 36 37 37 38 38 39 40 40 41 42 42 41 40 38 36 34 33 33 32 32 31 31 31 31 31 31 31 31 31 31 31 31
50 47 46 45 44 44 43 44 44 44 44 43 43 42 41 40 39 38 38 38 38 37 37 36 36 35 35 36 36 36 37 37 37 36 35 34 33 34 35 35 35 35 36 36 37 37 38 38 38 37 37 36 36 36 37 37 38 38 39 39 40 40 41 41 41 40 38 35 34 33 32 31 31 31 30 30 30 30 30 30 30 30 30 30 30 29
48 46 45 45 45 45 45 45 45 45 45 44 43 42 41 40 40 39 39 39 39 38 38 37 37 37 37 37 37 38 38 38 38 37 36 35 34 35 35 36 36 36 36 37 37 38 38 39 38 38 37 37 37 37 37 38 38 38 39 39 40 40 41 41 40 38 35 33 32 31 31 30 30 30 29 29 29 28 28 28 29 29 29 28 28 28
46 46 45 45 46 46 46 46 46 46 45 45 44 43 42 41 41 41 40 40 40 40 40 39 39 38 38 38 38 39 39 39 39 38 36 35 35 36 36 37 37 37 37 37 38 39 39 39 39 39 38 38 37 37 38 38 38 39 39 39 40 40 40 39 38 36 33 32 30 30 29 29 29 28 28 27 27 27 27 27 27 27 27 27 26 25
47 46 46 46 47 47 47 47 47 46 46 46 45 44 44 43 42 42 42 42 42 41 41 40 40 40 39 39 39 40 40 40 40 39 38 37 36 37 37 38 38 38 37 38 38 39 39 39 39 39 38 38 38 38 38 38 39 39 39 39 39 40 39 38 36 34 31 30 29 29 28 28 27 27 26 26 25 25 25 25 25 25 25 24 23 23
47 47 48 48 47 47 47 47 47 47 46 46 46 45 45 44 44 43 43 43 42 42 42 41 40 40 39 39 39 39 40 40 40 39 38 37 37 37 37 38 38 38 38 38 38 39 39 40 40 39 39 38 38 38 38 38 38 39 39 39 39 39 38 37 34 32 30 29 28 28 27 27 26 25 24 24 23 23 23 23 23 23 22 22 21 21
48 48 48 48 48 47 47 47 46 46 46 46 46 46 45 45 44 43 43 43 42 42 41 41 40 40 39 38 38 38 39 39 39 39 38 37 36 36 37 37 38 38 37 37 38 38 39 40 39 39 39 38 38 38 38 38 38 38 38 38 38 38 37 35 33 30 28 28 27 27 27 26 25 24 23 22 22 21 21 21 21 20 20 20 20 19
49 48 48 48 47 47 46 46 46 46 46 46 45 45 45 44 44 43 42 42 41 41 40 40 39 39 38 37 37 37 37 38 38 38 37 36 35 35 36 36 37 37 37 36 36 37 38 39 39 39 38 38 37 37 37 37 37 37 37 38 38 37 36 34 31 29 28 27 27 26 26 25 23 22 22 21 20 20 20 20 19 19 19 19 19 19
48 48 48 47 47 46 46 45 45 45 45 45 45 44 44 44 43 42 41 41 40 40 39 38 38 38 37 36 35 35 35 36 37 37 36 35 34 34 34 34 35 35 35 35 34 34 35 37 38 38 38 37 37 36 36 36 36 36 36 36 37 36 35 33 30 28 27 27 26 26 25 23 22 21 21 20 20 20 20 20 20 20 20 20 20 20
47 47 47 46 46 45 45 45 44 44 44 44 44 43 43 42 41 41 40 40 39 38 38 37 37 36 36 35 35 34 34 35 36 36 35 34 33 33 33 33 33 33 34 34 32 31 32 33 35 37 37 36 36 36 35 35 35 35 35 35 35 34 33 31 29 28 27 26 26 25 24 22 22 21 21 21 20 20 20 21 21 22 22 22 22 22
46 46 46 45 45 45 44 44 43 43 43 42 42 41 41 40 40 39 39 38 38 37 37 36 35 35 35 34 34 34 35 35 35 35 34 34 33 32 32 31 31 31 32 32 32 31 30 30 31 33 35 35 35 35 35 34 34 33 33 33 33 32 32 30 28 27 26 26 25 24 23 22 21 21 21 21 21 21 22 23 24 25 26 26 25 24
45 45 45 44 44 44 43 43 42 42 41 40 40 39 39 38 38 37 37 37 37 36 36 35 35 34 34 34 34 34 35 35 35 35 34 34 33 32 31 30 30 30 30 30 30 30 29 28 29 30 31 33 34 34 34 33 33 32 32 31 31 31 30 29 28 27 26 25 24 23 22 21 21 21 21 22 22 23 24 26 27 28 28 28 27 25
44 44 44 43 43 42 42 41 40 40 39 38 38 37 37 37 36 36 36 36 36 35 35 35 34 34 34 33 33 34 34 35 35 35 35 34 33 32 31 30 30 29 28 28 28 28 28 28 27 28 28 30 31 32 32 32 32 31 31 30 30 29 28 28 27 26 25 24 23 22 21 20 20 21 22 23 24 25 26 27 29 29 29 28 27 26
43 43 43 42 42 41 40 39 39 38 37 37 36 36 36 36 35 35 35 35 35 35 35 34 35 35 34 34 34 34 34 35 35 35 35 35 34 33 32 31 30 29 28 27 27 26 26 26 26 26 26 27 29 30 31 31 31 30 30 30 29 28 27 27 26 25 24 23 21 20 20 20 20 21 22 23 25 26 27 28 29 29 29 28 28 27
42 41 41 40 40 39 38 37 37 36 36 35 35 35 35 35 35 35 35 35 34 34 34 35 35 35 35 35 35 35 35 35 35 35 35 35 35 34 33 32 31 30 29 28 27 26 25 25 25 25 25 25 26 27 29 30 30 30 29 29 28 27 27 26 26 25 23 22 20 19 19 19 20 21 23 24 25 26 27 28 28 28 28 28 28 29
40 40 39 39 38 37 36 35 35 35 35 34 34 35 34 34 34 34 34 34 34 34 34 35 35 36 36 36 36 36 35 35 35 35 35 35 35 35 34 33 32 31 30 29 27 26 25 24 23 23 24 24 24 25 27 28 29 29 28 28 27 26 26 26 26 24 23 21 19 18 19 19 20 21 23 24 25 26 27 27 27 27 28 28 29 30
39 38 38 37 36 35 35 34 34 34 34 34 34 34 34 34 34 34 34 34 34 35 35 35 36 36 37 37 37 37 37 36 36 35 35 35 35 35 34 33 32 32 31 30 28 26 25 23 22 22 22 22 23 24 25 26 27 27 27 26 25 25 25 25 25 24 22 20 18 18 18 19 20 22 23 24 25 25 26 26 27 27 28 28 29 30
37 37 36 36 35 34 34 33 33 33 34 34 34 34 34 34 34 34 34 35 35 35 35 35 36 37 37 38 38 38 38 37 36 36 36 35 35 35 35 34 33 32 31 30 28 27 25 24 22 21 21 21 21 22 24 25 26 26 25 24 23 23 24 24 24 23 21 19 18 17 18 19 20 22 23 24 25 25 26 26 27 28 29 30 31 32
36 35 35 35 34 34 33 33 33 33 34 34 34 34 34 34 34 34 35 35 35 35 36 36 36 37 37 38 39 39 38 38 37 36 36 35 35 35 35 35 34 33 31 30 28 27 25 24 22 21 20 20 20 21 22 24 25 25 23 22 21 21 22 23 23 22 20 18 17 17 17 19 20 21 23 24 24 25 26 27 28 29 30 31 32 33
35 35 34 34 34 34 34 34 34 34 34 34 35 35 35 35 35 35 35 35 36 36 36 36 36 36 37 38 38 38 38 38 37 36 36 35 35 35 35 35 34 33 32 30 28 27 25 24 22 21 20 20 20 21 21 23 23 23 22 21 20 20 20 21 22 20 19 17 16 17 17 18 20 21 22 23 24 26 27 28 29 31 32 33 33 33
34 34 34 34 35 35 35 35 35 35 35 36 36 36 36 36 36 36 36 36 36 36 36 36 36 36 36 36 37 37 38 37 37 36 36 35 35 35 35 35 35 34 32 31 28 26 25 23 22 21 20 20 20 20 21 21 22 22 21 20 19 19 19 20 20 19 17 16 16 17 17 18 19 20 22 23 24 26 27 29 31 32 33 33 33 33
34 34 35 35 35 35 35 36 36 36 37 37 37 37 37 37 37 37 36 36 36 36 36 36 36 35 35 35 35 35 36 36 36 36 35 35 35 35 35 35 35 34 33 31 29 26 24 23 21 21 20 20 20 20 20 20 20 20 19 19 18 18 18 18 18 17 17 16 17 17 18 18 19 20 22 23 25 26 28 30 32 33 33 33 32 31
34 34 34 35 35 36 36 36 37 37 38 38 38 38 38 38 38 38 38 37 37 37 37 36 36 35 35 34 34 34 34 34 35 35 35 35 34 34 34 35 35 34 34 32 30 27 24 22 21 20 19 19 19 19 19 19 18 18 18 17 17 17 17 17 16 15 15 16 17 17 18 18 19 20 22 23 25 28 29 31 32 32 32 31 30 29
33 34 34 35 35 36 36 37 37 38 38 39 39 39 39 39 39 39 39 38 38 38 37 36 36 35 34 34 33 32 32 32 33 33 33 33 33 34 34 34 34 34 34 32 30 28 25 23 21 19 18 18 18 19 19 18 17 16 16 16 17 16 16 14 13 13 14 15 16 17 17 18 19 20 22 24 26 28 30 31 31 31 30 29 28 28
33 34 34 35 35 36 37 37 38 38 39 39 40 40 40 40 40 40 39 39 38 38 37 37 36 35 34 33 32 32 31 31 31 31 31 31 32 32 33 33 33 33 33 32 31 28 26 24 21 19 17 17 17 18 18 17 16 15 15 15 15 15 14 13 12 12 13 14 15 16 17 18 19 20 22 25 27 29 31 31 31 30 29 28 27 27
33 34 35 35 36 37 37 38 38 39 39 39 40 40 40 40 40 40 39 39 38 38 37 36 36 35 34 33 32 31 30 30 30 29 30 30 30 30 31 31 31 32 32 31 30 29 26 24 21 19 17 15 15 16 17 16 15 15 15 15 15 14 13 13 12 12 13 14 15 15 16 17 19 21 23 25 28 29 30 30 29 28 27 26 26 26
34 35 36 36 37 37 38 38 39 39 39 40 40 40 40 40 40 40 39 39 38 37 37 36 35 34 33 33 32 31 30 30 29 29 29 28 28 28 29 29 30 30 30 30 29 28 27 24 21 18 16 14 13 14 15 15 15 15 15 15 14 13 13 12 13 13 14 14 15 15 16 18 19 21 23 25 27 28 29 28 27 27 26 26 26 26
35 36 37 37 38 38 39 39 39 40 40 40 40 40 40 40 40 39 39 38 37 37 36 35 34 33 33 32 31 31 30 29 29 29 28 28 27 27 27 28 28 28 28 28 28 27 26 24 21 18 15 13 11 11 12 13 14 14 15 14 14 13 12 12 13 13 14 15 15 16 17 18 20 22 24 25 26 26 26 26 26 26 25 25 25 25
36 37 37 38 38 39 39 40 40 40 40 40 40 40 40 40 40 39 39 38 37 36 35 34 34 33 32 31 30 30 29 29 29 28 28 27 27 26 26 26 26 26 26 25 25 25 25 24 22 18 14 11 10 10 10 11 12 14 14 14 14 12 12 12 13 13 14 15 15 16 17 19 21 23 25 25 25 24 24 24 24 24 25 25 25 25
37 38 38 39 39 40 40 40 41 41 41 41 41 40 40 40 39 39 38 37 36 35 35 34 33 32 31 31 30 29 29 28 28 27 27 26 26 26 25 25 25 25 24 23 22 22 22 22 22 19 15 11 8 8 9 10 11 13 14 14 13 12 11 12 12 13 14 14 15 16 17 19 21 23 24 24 23 22 22 22 22 23 24 24 24 25
Wind_Direction
306 306 306 306 306 306 306 306 306 305 305 305 305 305 304 304 303 303 303 302 302 301 301 300 300 299 299 298 298 297 296 296 295 295 294 294 294 294 294 294 293 293 292 291 290 289 288 287 286 284 282 280 278 277 275 274 274 275 276 278 280 281 283 283 284 284 284 283 282 280 279 278 276 275 275 274 274 274 274 275 275 275 275 276 276 276
307 307 307 307 307 307 306 306 306 306 306 305 305 305 304 304 304 303 303 302 302 301 301 300 300 299 299 298 298 297 296 296 295 295 295 295 295 295 294 294 294 293 292 291 290 290 289 287 286 284 282 280 278 276 275 275 276 277 279 281 283 285 286 287 287 286 285 284 283 282 281 279 278 277 276 275 274 274 274 274 274 275 275 275 275 275
307 307 307 307 307 307 307 307 307 306 306 305 305 305 304 304 304 303 303 303 302 302 301 301 300 299 299 298 298 297 297 296 296 295 295 295 295 295 295 295 294 293 292 292 291 291 289 288 286 284 282 280 278 276 276 276 278 280 282 284 286 287 287 287 286 285 284 283 282 281 281 280 279 278 278 277 276 276 275 275 275 274 275 275 275 275
308 308 308 308 308 307 307 307 307 306 306 306 305 305 305 305 304 304 303 303 302 302 301 301 300 300 299 298 298 297 297 296 296 296 296 296 296 296 295 295 294 293 293 293 292 291 290 288 286 283 281 278 277 276 277 278 280 282 284 286 286 286 286 285 284 283 282 281 280 280 280 280 280 280 279 279 279 278 277 277 276 276 275 275 275 275
308 308 308 308 308 308 308 307 307 307 306 306 306 305 305 305 305 304 304 303 303 302 302 301 300 300 299 298 298 297 297 296 296 296 296 296 296 296 295 295 294 294 294 293 292 291 289 287 284 282 279 278 277 277 278 280 282 284 286 287 287 286 286 284 283 282 281 280 279 279 279 280 280 281 281 281 281 281 280 279 278 278 277 276 276 275
309 309 309 309 308 308 308 308 307 307 307 306 306 306 306 306 305 305 304 304 303 302 302 301 300 300 299 298 298 297 297 296 296 296 296 296 296 296 295 295 295 295 294 294 292 291 289 286 283 281 278 277 277 278 280 283 285 287 288 288 288 287 286 285 283 282 281 280 280 280 280 281 281 282 282 282 282 282 282 281 280 279 278 278 277 276
309 309 309 309 309 309 308 308 308 307 307 307 307 307 306 306 305 305 304 304 303 303 302 301 300 300 299 298 298 297 297 296 296 296 296 296 296 295 295 295 295 295 295 294 292 291 288 285 283 280 279 279 280 281 283 286 287 289 289 289 289 288 286 285 284 283 283 283 283 283 284 284 284 284 284 284 283 283 282 282 281 280 279 278 278 277
310 310 310 309 309 309 309 309 308 308 308 308 307 307 307 306 306 305 304 304 303 303 302 301 301 300 299 298 298 297 297 296 296 296 296 296 296 296 296 296 296 296 295 294 293 291 288 285 283 281 281 281 283 285 287 288 290 291 291 290 290 288 287 286 286 286 286 287 288 289 289 289 289 288 287 286 285 284 283 282 281 280 279 278 278 277
310 310 310 310 310 310 309 309 309 309 308 308 308 307 307 306 306 305 305 305 304 303 302 302 301 300 300 299 298 298 297 297 297 296 296 296 296 296 296 296 296 296 295 294 293 291 289 286 284 283 284 284 286 288 289 291 292 293 292 292 290 290 289 289 289 290 292 293 294 294 294 293 292 291 290 288 287 285 284 282 281 280 279 278 278 277
311 311 311 311 311 310 310 310 309 309 309 309 308 307 307 306 306 306 305 305 304 304 303 302 302 301 300 299 299 298 298 298 297 297 296 296 296 297 297 297 297 296 295 294 293 291 289 287 286 286 286 287 288 290 292 293 294 294 294 293 292 291 292 293 294 296 297 298 298 297 297 295 294 293 291 290 288 287 285 284 283 282 281 279 279 278
311 312 311 311 311 311 311 310 310 309 309 309 308 308 307 307 307 307 306 305 305 304 304 303 302 301 300 300 299 298 298 297 297 297 296 296 297 297 297 297 296 296 295 294 293 291 289 288 287 287 288 289 291 292 294 295 296 296 295 294 293 294 295 297 298 300 300 300 300 299 297 296 295 293 292 291 289 288 287 286 285 284 283 281 280 279
312 312 312 312 312 311 311 311 310 310 309 309 309 308 308 308 308 308 307 306 305 305 304 304 303 302 301 300 299 298 298 297 296 296 296 296 297 297 297 297 296 296 295 294 292 291 290 289 289 289 290 291 292 294 296 297 297 296 295 295 295 296 298 299 301 301 301 301 300 299 298 297 295 294 293 292 291 290 289 288 287 286 285 283 282 281
313 313 312 312 312 312 311 311 311 310 310 309 309 309 308 308 308 308 307 306 305 305 304 304 303 302 301 300 299 298 297 296 296 296 296 296 296 296 296 296 295 295 294 293 292 291 290 290 290 290 291 292 294 296 297 298 298 297 296 296 296 298 300 301 302 302 302 302 301 300 299 298 296 295 294 293 292 291 290 289 288 287 286 285 284 283
313 313 313 313 312 312 312 311 311 310 310 309 309 309 309 309 308 308 307 306 306 305 305 304 303 302 302 301 299 298 297 296 295 295 295 296 296 296 296 295 295 294 293 292 291 290 290 290 290 291 292 293 295 296 298 298 297 296 296 296 297 299 300 301 302 303 303 302 302 301 300 299 297 296 295 294 293 292 291 291 290 289 288 287 286 284
313 313 313 313 312 312 312 312 311 311 310 310 310 310 310 309 308 308 307 306 306 305 305 304 304 303 302 300 299 297 296 296 295 295 294 295 295 295 295 295 294 294 293 291 290 290 290 290 290 291 292 293 295 297 297 297 296 295 295 296 298 299 301 302 303 303 304 303 303 302 301 299 298 297 296 295 294 293 293 292 291 290 289 288 287 286
313 313 313 313 313 312 312 312 311 311 310 310 311 310 310 309 308 308 307 306 306 305 305 304 304 303 301 300 298 296 296 295 295 294 294 294 294 294 295 294 294 293 292 291 290 290 290 290 291 292 293 294 296 297 297 296 295 295 295 296 298 299 301 302 303 304 304 304 303 302 301 300 299 298 297 296 295 294 293 293 292 291 290 290 289 288
314 313 313 313 313 313 312 312 312 311 311 311 311 311 310 309 308 308 307 307 306 305 305 304 303 302 301 298 296 295 294 294 294 293 293 293 293 293 293 293 293 293 292 291 291 291 291 291 292 293 294 295 297 297 296 295 294 294 295 296 298 299 301 303 304 305 305 305 304 303 302 301 299 299 298 297 296 295 294 293 292 292 291 291 290 289
314 314 314 313 313 313 312 312 312 311 311 311 311 311 310 309 309 308 307 307 306 305 305 304 303 302 301 298 296 294 293 293 292 292 292 292 292 292 292 292 293 292 292 292 291 291 292 292 293 294 295 296 297 297 296 294 294 294 295 296 298 300 302 303 304 305 306 305 304 303 302 301 300 299 298 297 296 295 295 294 293 293 292 292 291 291
314 314 314 314 313 313 313 312 312 311 311 311 311 311 310 310 309 309 308 307 306 306 305 304 303 302 300 298 297 295 293 292 292 292 291 291 292 292 292 292 292 292 292 292 292 292 293 293 294 295 295 296 296 296 295 294 294 294 295 297 299 301 303 304 305 306 306 306 305 304 303 302 301 300 299 298 297 296 295 295 295 294 294 293 293 292
314 314 314 314 314 313 313 312 312 312 312 311 311 311 311 310 310 309 308 307 306 305 305 304 303 301 300 299 297 296 294 293 292 291 291 292 292 292 292 291 291 292 292 292 292 292 293 293 294 294 295 296 296 295 294 294 294 295 296 298 300 301 303 305 306 307 307 306 305 304 303 302 301 300 299 298 298 297 296 296 296 295 294 294 293 293
314 314 314 314 314 313 313 312 312 312 312 312 311 311 311 310 310 309 308 307 306 305 304 303 303 301 300 299 298 296 294 293 292 292 291 291 292 292 292 291 291 291 291 291 291 292 292 292 292 293 294 295 295 295 294 294 295 296 297 299 300 302 304 306 307 307 307 307 306 305 304 303 302 301 300 299 298 297 297 296 296 295 295 294 294 293
314 314 314 314 314 313 313 312 312 312 312 312 311 311 311 310 310 309 308 307 306 306 305 304 303 302 301 300 299 297 295 294 294 293 292 292 292 292 291 290 290 290 290 290 290 290 291 291 291 292 293 294 294 295 294 295 295 296 298 299 301 303 304 306 307 307 307 307 306 306 305 304 303 302 301 300 299 298 297 297 296 296 296 295 294 294
315 314 314 314 313 313 313 312 312 312 311 311 311 311 311 310 309 309 308 307 307 306 306 305 304 303 302 301 300 298 296 294 294 293 293 292 292 292 291 290 290 290 290 289 289 289 289 290 290 291 292 293 294 294 295 295 296 297 298 300 301 303 305 306 307 308 308 307 307 307 306 305 304 303 302 301 300 299 298 298 297 297 297 296 296 295
315 314 314 314 313 313 312 312 312 311 311 311 311 310 310 310 309 308 308 307 307 307 306 305 305 304 304 303 302 300 298 295 294 293 293 293 293 293 291 290 290 289 289 289 288 288 288 289 289 290 291 293 293 294 295 295 296 297 298 300 302 303 305 307 308 308 308 308 308 307 307 306 305 304 303 302 301 300 300 299 299 298 298 298 298 297
314 314 314 313 313 312 312 312 311 311 311 311 310 310 310 309 309 308 308 308 307 307 307 307 306 306 305 305 304 302 300 297 295 295 294 293 293 293 292 291 290 290 290 289 289 288 288 288 289 290 291 292 293 293 294 295 296 297 298 300 301 304 305 307 308 308 308 308 308 308 307 307 306 305 305 304 303 302 301 301 300 300 300 300 300 299
314 314 313 313 313 312 312 312 311 311 311 310 310 310 310 309 309 309 309 309 308 308 308 308 307 307 306 306 305 304 302 299 297 296 296 295 294 293 293 292 291 291 290 290 289 289 289 289 289 289 290 291 292 293 293 294 295 296 297 299 301 304 305 307 308 308 308 308 308 308 308 307 307 306 306 305 304 303 302 302 301 301 302 302 302 302
314 314 313 313 313 312 312 312 312 311 311 310 310 310 310 310 310 310 310 309 309 309 309 308 308 307 307 307 306 305 303 301 300 299 298 297 296 295 293 292 291 291 291 291 290 289 289 289 289 289 289 290 291 291 292 293 294 295 297 299 301 303 305 306 307 307 307 308 308 308 308 307 307 307 306 305 304 303 302 301 302 302 303 304 305 305
314 314 313 313 313 312 312 312 311 311 310 310 310 309 309 310 310 310 310 309 309 309 309 309 308 308 308 308 307 307 305 303 302 301 300 299 298 297 295 293 292 291 291 291 290 290 289 289 288 288 289 289 290 290 291 292 293 295 297 299 301 303 305 306 306 306 307 307 308 308 308 308 308 307 306 305 303 302 301 301 301 303 305 306 307 307
314 314 313 313 312 312 312 311 311 310 310 309 309 309 309 310 310 310 310 310 310 310 310 309 309 309 309 309 308 308 307 306 304 303 302 302 301 300 297 295 294 292 291 291 291 291 290 289 288 288 288 288 289 289 290 291 293 294 296 299 301 303 304 305 305 306 306 307 308 308 308 308 308 307 305 304 302 300 300 300 302 303 305 307 308 307
314 313 313 313 312 312 311 311 310 310 309 309 309 309 309 309 310 310 310 310 310 310 310 310 310 310 310 310 310 310 309 308 307 306 306 306 305 303 301 299 297 295 293 292 291 292 291 290 289 288 288 288 288 288 289 290 292 294 296 299 301 302 303 304 304 305 306 307 308 308 308 308 307 305 303 301 300 300 300 300 302 303 305 306 307 306
313 313 312 312 312 311 311 311 310 310 309 309 309 309 309 310 310 310 310 310 310 311 311 311 311 311 311 312 312 312 312 310 309 309 309 309 308 307 304 303 300 298 296 294 293 292 292 291 290 290 289 288 288 288 288 289 291 293 296 298 300 302 302 303 304 305 307 308 308 308 307 306 304 302 300 299 299 299 300 301 302 304 305 306 306 305
313 313 312 312 312 312 311 311 311 310 310 310 310 310 310 310 310 310 311 311 311 311 312 312 312 313 313 314 314 314 314 313 312 311 311 311 310 309 308 306 304 301 299 297 295 293 292 291 290 290 289 288 288 287 288 289 291 293 295 298 299 300 301 301 303 304 306 308 308 307 305 303 301 299 298 298 298 300 301 302 304 305 306 306 306 305
313 313 313 312 312 312 312 311 311 311 311 310 310 310 311 311 311 311 312 312 312 312 312 313 313 314 314 315 316 316 316 315 314 314 313 313 312 312 310 309 307 304 302 299 297 295 293 291 289 289 289 288 288 287 288 288 290 293 295 297 298 299 299 300 301 304 306 307 306 305 303 301 299 298 298 299 300 301 303 304 306 306 307 306 306 305
314 314 314 313 313 313 313 312 312 312 311 311 311 311 312 312 312 312 312 313 313 313 313 314 314 315 315 316 316 317 316 316 316 316 315 315 314 314 313 311 309 307 305 302 300 298 295 292 290 288 287 287 287 287 288 288 290 292 295 296 297 297 297 298 300 303 305 306 305 303 300 298 298 299 300 301 303 304 305 306 307 307 307 307 306 306
315 315 315 315 314 314 314 313 313 313 313 312 312 313 313 313 313 313 313 313 313 314 314 315 315 315 315 316 317 317 317 317 317 317 317 316 316 315 315 314 312 310 308 305 303 300 297 294 292 289 287 286 287 287 288 289 290 293 295 296 296 296 296 297 300 303 305 305 304 301 299 298 298 300 302 303 304 305 307 307 307 307 307 308 308 308
317 317 316 316 316 316 315 315 314 314 314 314 313 313 314 314 314 314 314 314 314 314 314 315 315 315 316 316 317 317 318 318 318 318 318 318 317 317 316 316 314 312 310 308 305 302 300 296 293 290 287 286 286 287 288 289 291 293 295 296 296 296 296 298 301 304 306 306 304 301 299 298 299 301 302 303 304 306 306 306 307 307 307 308 309 310
319 319 318 318 318 317 317 316 316 315 315 314 314 314 314 314 314 314 314 314 314 314 314 315 315 315 316 316 317 317 318 318 318 318 318 318 318 317 317 316 316 314 313 311 309 306 302 298 294 291 288 286 286 286 287 289 291 293 295 296 296 295 296 299 303 306 308 307 305 302 300 299 300 301 302 303 304 304 305 305 305 306 307 308 310 311
321 321 321 320 320 319 318 317 317 316 315 315 315 315 315 315 315 315 314 314 314 314 314 314 315 315 315 316 316 317 317 317 318 318 318 318 318 318 317 317 316 316 315 313 311 309 305 301 297 292 289 287 286 286 287 289 291 293 294 295 295 295 297 301 305 308 309 308 305 302 301 301 301 302 302 302 302 303 303 303 304 305 307 309 310 311
324 324 323 323 322 321 320 319 318 317 317 316 316 315 315 315 315 315 315 314 314 314 314 314 314 314 314 315 315 315 316 316 317 317 317 318 318 318 318 317 317 317 316 315 313 311 308 305 300 295 290 288 287 287 288 289 291 292 293 293 294 295 298 302 306 308 309 308 305 303 302 303 303 302 302 302 302 302 303 303 305 307 309 311 312 312
327 327 326 325 324 323 322 321 320 319 318 317 316 316 316 316 316 315 315 314 314 313 313 313 314 314 314 314 314 314 314 315 315 316 316 317 318 318 318 318 318 317 317 316 315 313 311 308 304 299 294 290 288 288 289 290 290 291 292 292 292 294 298 302 306 307 308 307 305 304 304 304 303 302 302 302 303 304 305 307 309 311 313 313 314 314
330 329 328 328 327 326 325 323 322 321 319 318 317 317 316 316 316 315 314 314 313 313 312 313 313 313 313 313 313 313 313 313 314 315 316 316 317 318 318 318 318 318 317 317 316 315 313 310 307 302 297 294 291 290 290 290 290 290 291 291 292 294 298 302 304 306 306 306 305 305 305 303 303 302 302 303 305 306 308 310 313 314 316 316 316 316
332 331 331 330 329 327 326 325 323 322 320 319 318 317 316 316 315 314 313 312 312 311 311 311 311 311 311 311 311 311 312 312 313 313 314 316 317 317 318 318 318 318 318 317 317 316 314 311 308 305 300 296 294 292 291 290 290 290 291 292 295 298 300 302 304 305 306 306 306 305 304 304 303 303 304 305 307 309 311 314 316 317 318 318 318 318
334 333 333 332 330 329 328 326 324 322 321 320 318 317 316 315 314 313 312 311 310 310 310 309 309 309 309 309 309 310 310 311 311 312 313 314 316 317 318 318 319 319 319 318 317 316 315 313 310 307 302 298 295 293 291 290 289 289 291 294 298 301 303 304 304 305 307 307 306 305 304 304 304 305 306 308 310 312 314 317 319 320 320 320 320 319
337 336 335 334 333 331 329 327 325 323 321 320 318 317 316 315 314 313 312 311 310 309 309 308 308 308 308 308 308 308 309 309 310 311 312 313 315 316 317 318 319 319 319 319 318 317 316 314 312 309 305 301 297 294 291 290 289 289 291 296 302 306 308 307 306 306 306 306 305 304 303 304 306 307 309 311 313 316 318 320 321 322 322 322 322 321
340 339 338 336 334 332 330 328 326 324 322 320 319 318 316 315 314 313 312 311 310 309 309 308 308 307 307 306 306 307 307 308 309 310 311 312 314 315 317 318 319 319 319 319 318 317 316 315 313 310 306 303 298 295 292 290 290 291 294 299 305 309 310 309 307 306 305 303 301 301 303 306 308 310 312 315 318 320 322 323 324 324 324 324 323 322
343 341 339 338 335 333 331 329 327 325 323 321 320 319 318 317 316 315 313 312 311 310 309 308 308 307 306 306 306 306 306 306 307 308 309 311 312 314 316 317 318 318 318 318 317 317 316 314 313 310 307 303 299 295 293 292 293 295 299 304 309 311 312 310 308 304 301 299 299 301 304 308 311 313 316 319 322 324 326 326 326 326 326 326 325 323
344 343 341 339 336 334 332 330 328 326 324 323 322 320 319 319 318 317 316 314 313 312 311 309 308 307 306 306 305 305 305 305 305 306 307 309 311 312 314 316 317 317 317 317 316 316 315 314 312 310 307 304 299 295 293 293 296 300 305 309 313 315 315 312 308 303 301 299 300 303 307 311 314 318 321 324 327 328 329 329 329 329 329 328 327 325
345 343 341 339 337 335 333 331 329 327 326 325 323 322 321 321 320 319 318 317 316 314 313 311 310 308 307 307 306 306 305 305 305 306 306 308 309 311 313 315 316 316 317 316 316 315 315 313 312 310 307 304 299 294 292 294 298 304 310 314 316 317 316 311 306 302 301 301 304 308 312 315 319 322 326 329 331 332 332 332 331 331 332 332 330 329
345 343 342 340 337 335 333 332 330 328 327 326 325 324 323 322 321 321 320 319 318 317 315 313 312 310 309 308 307 306 306 306 306 306 307 308 309 311 312 314 315 316 316 316 316 315 314 313 311 310 308 305 300 295 293 295 300 307 313 316 317 316 313 308 303 301 300 303 307 312 316 320 324 327 331 334 336 337 336 335 335 335 336 336 336 335
345 343 342 340 338 336 334 332 331 329 328 326 325 324 324 323 323 322 322 321 320 319 318 316 314 312 311 310 309 308 307 306 306 307 307 308 310 311 313 314 315 316 316 315 315 314 313 311 310 309 308 306 301 296 295 297 303 309 314 316 316 314 309 304 300 299 300 304 309 314 319 323 328 332 335 338 341 341 340 339 340 341 343 343 344 344
345 344 342 341 339 337 335 333 331 330 328 327 326 325 324 324 324 324 323 323 322 321 320 319 317 316 314 312 311 310 309 308 307 307 308 309 310 312 313 314 315 316 316 315 314 312 311 309 308 308 308 309 305 298 298 301 306 310 314 315 313 310 305 299 297 298 302 306 312 317 321 326 330 335 339 342 345 346 346 346 347 349 351 352 353 353
Height
5550 5546 5542 5539 5536 5532 5527 5522 5519 5516 5512 5506 5501 5498 5495 5491 5485 5480 5476 5471 5466 5461 5456 5451 5446 5441 5437 5434 5430 5426 5422 5418 5415 5412 5410 5408 5406 5404 5403 5401 5400 5398 5397 5395 5394 5393 5392 5391 5390 5389 5389 5388 5387 5387 5387 5387 5387 5387 5387 5386 5386 5386 5385 5385 5384 5383 5382 5381 5380 5379 5378 5377 5376 5376 5375 5374 5373 5372 5371 5371 5370 5369 5369 5368 5367 5366
5543 5539 5535 5532 5529 5526 5521 5515 5511 5507 5504 5499 5494 5488 5484 5481 5476 5471 5465 5461 5455 5450 5445 5441 5436 5431 5427 5424 5420 5417 5414 5411 5407 5405 5403 5401 5400 5399 5397 5396 5395 5393 5392 5391 5390 5389 5388 5387 5386 5385 5385 5384 5384 5384 5384 5383 5384 5383 5383 5383 5383 5382 5381 5381 5380 5379 5377 5376 5376 5374 5373 5372 5371 5371 5370 5369 5368 5367 5366 5366 5365 5364 5364 5363 5363 5362
5538 5533 5529 5525 5521 5518 5514 5509 5504 5498 5494 5490 5485 5480 5475 5471 5466 5461 5455 5451 5445 5440 5435 5430 5426 5423 5419 5416 5412 5410 5407 5404 5401 5399 5397 5396 5395 5394 5393 5391 5390 5389 5388 5386 5386 5385 5384 5383 5382 5381 5381 5381 5380 5380 5380 5380 5380 5380 5380 5380 5379 5379 5378 5377 5376 5375 5374 5372 5371 5370 5368 5367 5366 5365 5365 5364 5363 5363 5362 5361 5360 5359 5359 5358 5357 5357
5531 5527 5522 5517 5514 5510 5506 5502 5497 5491 5485 5480 5475 5471 5466 5460 5455 5450 5445 5440 5436 5431 5426 5421 5418 5415 5412 5409 5406 5403 5401 5398 5396 5394 5393 5392 5391 5390 5389 5387 5386 5385 5384 5383 5382 5381 5380 5379 5378 5378 5377 5377 5377 5377 5377 5377 5377 5377 5377 5376 5376 5376 5375 5374 5372 5371 5370 5368 5367 5365 5364 5363 5362 5361 5360 5359 5358 5358 5357 5356 5356 5355 5354 5353 5352 5352
5524 5521 5516 5511 5506 5502 5498 5493 5488 5482 5476 5471 5465 5461 5457 5451 5446 5440 5435 5430 5426 5423 5419 5415 5411 5408 5405 5403 5400 5398 5396 5394 5392 5391 5389 5388 5387 5386 5385 5384 5382 5381 5380 5379 5378 5377 5376 5376 5375 5375 5374 5374 5374 5374 5374 5374 5374 5374 5374 5373 5372 5372 5371 5370 5368 5367 5366 5364 5362 5361 5360 5359 5358 5357 5356 5355 5354 5353 5352 5351 5351 5350 5349 5348 5348 5347
5516 5513 5509 5505 5500 5495 5489 5485 5479 5473 5467 5461 5455 5450 5446 5442 5437 5431 5426 5422 5418 5415 5411 5409 5406 5403 5400 5398 5396 5394 5392 5390 5389 5387 5386 5385 5384 5383 5382 5381 5379 5378 5377 5376 5375 5374 5373 5372 5372 5371 5371 5371 5371 5371 5371 5371 5371 5371 5370 5370 5369 5368 5366 5365 5364 5362 5361 5360 5358 5357 5356 5355 5354 5353 5352 5351 5350 5349 5348 5347 5346 5345 5345 5344 5343 5342
5509 5505 5500 5497 5493 5487 5481 5475 5469 5464 5459 5453 5446 5440 5436 5432 5428 5424 5420 5416 5412 5408 5405 5403 5400 5398 5396 5394 5392 5390 5388 5387 5386 5384 5383 5382 5381 5380 5379 5377 5376 5375 5374 5373 5371 5371 5370 5369 5369 5368 5368 5368 5368 5368 5368 5368 5367 5367 5366 5366 5365 5363 5362 5361 5359 5358 5356 5356 5354 5353 5352 5351 5351 5349 5348 5347 5346 5345 5344 5342 5341 5340 5340 5339 5338 5337
5503 5498 5492 5487 5483 5479 5472 5465 5457 5452 5449 5445 5439 5433 5428 5423 5419 5415 5412 5410 5407 5404 5400 5398 5396 5394 5392 5390 5388 5386 5385 5384 5382 5381 5380 5379 5378 5377 5376 5374 5373 5372 5371 5370 5368 5367 5366 5366 5366 5365 5365 5365 5365 5365 5365 5364 5364 5363 5362 5361 5360 5359 5358 5356 5355 5354 5352 5351 5350 5349 5348 5347 5346 5345 5344 5343 5341 5340 5339 5338 5336 5335 5334 5333 5332 5331
5495 5491 5486 5479 5473 5468 5464 5457 5449 5441 5437 5434 5430 5426 5421 5418 5414 5409 5406 5404 5402 5400 5397 5395 5392 5391 5389 5387 5385 5384 5382 5381 5380 5378 5377 5376 5375 5374 5373 5371 5370 5369 5368 5366 5366 5365 5364 5363 5362 5362 5362 5362 5361 5361 5361 5361 5360 5360 5358 5357 5356 5355 5353 5352 5351 5349 5348 5347 5346 5345 5344 5342 5341 5340 5339 5337 5336 5335 5334 5332 5331 5330 5329 5328 5327 5326
5486 5481 5476 5471 5464 5458 5453 5449 5443 5436 5429 5425 5421 5416 5413 5412 5410 5406 5402 5399 5397 5396 5394 5391 5390 5388 5386 5384 5382 5381 5379 5378 5376 5376 5374 5373 5372 5371 5370 5369 5367 5366 5365 5364 5363 5362 5361 5360 5360 5359 5359 5359 5358 5358 5358 5357 5356 5356 5355 5353 5352 5350 5349 5348 5346 5346 5344 5343 5342 5341 5339 5338 5336 5335 5333 5332 5331 5330 5328 5327 5326 5325 5324 5322 5321 5321
5477 5472 5466 5461 5455 5448 5442 5438 5433 5429 5424 5419 5415 5410 5406 5404 5403 5402 5399 5396 5394 5392 5391 5388 5387 5385 5383 5381 5379 5378 5376 5375 5374 5372 5371 5371 5369 5368 5367 5366 5365 5363 5362 5361 5360 5359 5358 5357 5357 5356 5356 5356 5355 5355 5354 5354 5353 5352 5351 5349 5348 5346 5345 5344 5343 5341 5341 5339 5338 5336 5335 5333 5332 5330 5329 5327 5326 5324 5323 5322 5321 5319 5318 5317 5316 5315
5468 5462 5457 5452 5446 5441 5435 5430 5425 5420 5416 5413 5410 5406 5402 5399 5397 5397 5396 5393 5391 5390 5388 5386 5384 5382 5381 5379 5377 5375 5374 5373 5371 5370 5369 5368 5367 5366 5364 5363 5362 5361 5360 5358 5357 5356 5355 5355 5354 5353 5353 5352 5352 5351 5351 5350 5349 5348 5347 5345 5344 5342 5341 5340 5339 5338 5337 5335 5334 5332 5331 5329 5327 5326 5324 5322 5321 5319 5318 5317 5316 5314 5313 5312 5311 5311
5459 5453 5448 5443 5438 5433 5428 5423 5419 5414 5410 5407 5405 5402 5399 5396 5394 5393 5392 5390 5389 5387 5386 5384 5382 5380 5377 5376 5374 5372 5371 5370 5369 5368 5367 5366 5364 5363 5362 5361 5360 5358 5357 5356 5355 5354 5352 5352 5351 5351 5350 5349 5349 5348 5348 5347 5346 5345 5343 5342 5341 5339 5338 5337 5336 5335 5333 5331 5330 5328 5326 5325 5323 5321 5320 5318 5316 5315 5313 5312 5311 5310 5308 5307 5306 5306
5451 5445 5440 5434 5429 5425 5421 5417 5413 5409 5406 5403 5401 5399 5396 5394 5392 5391 5389 5387 5386 5385 5384 5382 5380 5377 5375 5372 5371 5369 5368 5367 5366 5366 5365 5364 5362 5361 5359 5358 5357 5356 5355 5353 5352 5351 5350 5349 5348 5348 5347 5346 5346 5346 5345 5344 5343 5341 5340 5338 5337 5336 5335 5334 5332 5331 5329 5328 5326 5324 5322 5321 5319 5317 5315 5313 5312 5310 5309 5307 5306 5305 5304 5303 5302 5301
5442 5437 5433 5428 5423 5419 5415 5411 5408 5405 5401 5399 5397 5395 5393 5391 5389 5388 5386 5385 5383 5382 5381 5379 5377 5375 5373 5370 5368 5366 5365 5364 5364 5363 5363 5362 5360 5358 5356 5355 5355 5354 5352 5351 5349 5348 5347 5346 5346 5345 5344 5344 5343 5343 5342 5341 5340 5338 5337 5336 5334 5333 5332 5331 5329 5327 5326 5324 5322 5320 5318 5316 5314 5312 5311 5309 5308 5306 5305 5304 5302 5301 5300 5299 5298 5297
5434 5430 5426 5422 5418 5414 5410 5407 5404 5401 5398 5396 5394 5393 5391 5389 5387 5385 5383 5382 5381 5379 5377 5376 5374 5373 5371 5369 5366 5363 5362 5361 5361 5361 5361 5360 5358 5356 5354 5353 5352 5351 5350 5348 5347 5346 5345 5344 5343 5342 5341 5341 5341 5340 5339 5338 5336 5335 5334 5332 5331 5330 5329 5327 5326 5324 5322 5320 5318 5316 5314 5312 5310 5309 5307 5306 5304 5302 5301 5300 5299 5297 5296 5295 5294 5293
5428 5424 5420 5416 5413 5409 5406 5403 5400 5398 5396 5394 5392 5390 5388 5386 5384 5382 5381 5379 5377 5376 5375 5373 5372 5370 5368 5367 5364 5361 5359 5358 5358 5358 5358 5357 5356 5354 5352 5350 5349 5349 5348 5346 5344 5343 5342 5341 5340 5339 5339 5338 5338 5337 5336 5335 5333 5332 5331 5330 5328 5327 5326 5324 5322 5321 5318 5316 5314 5312 5310 5308 5306 5305 5303 5302 5301 5299 5298 5296 5296 5294 5293 5292 5291 5290
5422 5418 5415 5412 5408 5405 5402 5400 5397 5395 5393 5391 5390 5388 5386 5384 5382 5380 5378 5376 5375 5373 5371 5370 5369 5367 5366 5364 5362 5360 5357 5356 5355 5355 5355 5355 5354 5352 5350 5348 5347 5346 5345 5343 5341 5340 5339 5338 5337 5336 5336 5336 5335 5334 5333 5332 5331 5329 5328 5327 5326 5324 5322 5321 5319 5317 5315 5313 5311 5309 5306 5305 5303 5301 5300 5299 5297 5296 5295 5294 5292 5291 5290 5289 5288 5287
5417 5414 5411 5408 5405 5402 5399 5396 5395 5392 5390 5388 5387 5385 5383 5381 5379 5377 5375 5373 5372 5370 5369 5367 5366 5364 5362 5361 5359 5357 5355 5354 5353 5352 5352 5352 5351 5350 5347 5346 5344 5343 5342 5341 5339 5337 5336 5336 5334 5334 5333 5333 5332 5331 5330 5329 5327 5326 5325 5324 5322 5321 5319 5317 5316 5314 5311 5309 5307 5305 5303 5301 5300 5298 5297 5296 5294 5293 5292 5291 5289 5288 5287 5286 5285 5284
5412 5409 5406 5404 5402 5399 5396 5393 5391 5390 5388 5386 5384 5383 5381 5379 5377 5375 5373 5371 5369 5368 5366 5365 5363 5361 5360 5358 5356 5354 5352 5351 5350 5350 5349 5349 5349 5347 5345 5343 5342 5341 5340 5338 5336 5335 5334 5332 5331 5331 5330 5330 5329 5329 5327 5326 5325 5323 5322 5321 5319 5318 5316 5314 5312 5310 5308 5306 5304 5302 5300 5298 5297 5296 5294 5293 5292 5290 5289 5288 5286 5285 5284 5283 5281 5281
5409 5405 5402 5400 5398 5396 5393 5391 5389 5386 5385 5383 5381 5380 5378 5376 5374 5372 5371 5369 5367 5365 5364 5362 5361 5359 5357 5356 5354 5351 5350 5348 5347 5347 5346 5346 5346 5344 5342 5341 5340 5339 5337 5336 5334 5332 5331 5330 5329 5328 5327 5327 5326 5326 5324 5323 5321 5320 5319 5317 5316 5314 5313 5311 5309 5307 5305 5303 5301 5299 5297 5296 5294 5293 5291 5290 5289 5288 5286 5285 5284 5282 5281 5280 5279 5278
5405 5402 5399 5396 5395 5393 5391 5388 5386 5384 5381 5380 5378 5377 5375 5373 5372 5370 5368 5366 5364 5363 5361 5360 5358 5356 5355 5353 5351 5349 5346 5345 5344 5344 5343 5343 5343 5342 5340 5338 5336 5336 5335 5333 5331 5330 5328 5327 5326 5325 5325 5324 5323 5322 5321 5320 5318 5317 5316 5314 5313 5311 5310 5308 5306 5304 5302 5300 5298 5296 5294 5293 5291 5290 5289 5287 5286 5285 5283 5282 5281 5280 5278 5277 5276 5275
5401 5399 5396 5394 5391 5389 5387 5385 5383 5381 5379 5377 5376 5374 5372 5371 5369 5367 5365 5363 5362 5360 5359 5357 5356 5354 5352 5350 5348 5346 5344 5342 5341 5341 5341 5340 5340 5338 5336 5335 5334 5333 5331 5330 5329 5327 5326 5324 5323 5322 5321 5321 5320 5319 5318 5316 5315 5314 5312 5311 5309 5308 5306 5305 5303 5301 5299 5297 5295 5293 5292 5290 5289 5287 5286 5285 5283 5282 5281 5279 5278 5277 5276 5274 5273 5272
5397 5395 5393 5391 5388 5386 5384 5382 5380 5378 5376 5374 5373 5371 5369 5367 5366 5364 5362 5360 5359 5357 5356 5354 5353 5351 5349 5347 5346 5343 5341 5339 5338 5338 5337 5337 5336 5335 5333 5331 5331 5330 5328 5327 5325 5324 5323 5321 5320 5319 5318 5318 5317 5316 5315 5313 5312 5310 5309 5308 5306 5305 5303 5301 5300 5298 5296 5294 5292 5291 5289 5288 5286 5285 5283 5282 5281 5279 5278 5277 5275 5274 5273 5272 5271 5270
5394 5392 5390 5388 5386 5383 5381 5379 5377 5375 5373 5371 5369 5367 5366 5364 5362 5360 5358 5357 5355 5354 5352 5351 5349 5348 5346 5345 5343 5340 5338 5336 5335 5334 5334 5334 5333 5331 5330 5328 5327 5326 5325 5324 5322 5320 5319 5318 5317 5316 5315 5314 5314 5312 5311 5310 5308 5307 5306 5304 5303 5301 5300 5298 5296 5295 5293 5291 5290 5288 5287 5285 5284 5282 5281 5280 5278 5277 5275 5274 5273 5272 5271 5270 5269 5268
5391 5389 5387 5385 5382 5380 5378 5376 5374 5371 5369 5367 5365 5363 5362 5360 5359 5357 5355 5354 5352 5350 5349 5347 5346 5345 5343 5341 5339 5337 5335 5333 5331 5331 5331 5330 5329 5328 5326 5325 5323 5322 5321 5320 5318 5317 5316 5315 5313 5312 5312 5311 5310 5309 5308 5306 5305 5304 5302 5301 5300 5299 5297 5296 5294 5292 5291 5289 5287 5286 5284 5283 5281 5280 5279 5277 5276 5274 5273 5272 5271 5270 5269 5268 5267 5266
5388 5386 5384 5381 5379 5377 5375 5372 5370 5368 5366 5364 5362 5360 5358 5357 5355 5354 5352 5350 5349 5347 5346 5344 5343 5341 5340 5338 5336 5334 5332 5330 5328 5328 5327 5327 5326 5324 5322 5321 5320 5319 5318 5317 5315 5313 5312 5311 5310 5309 5309 5308 5307 5306 5305 5303 5302 5301 5299 5298 5297 5296 5294 5293 5291 5290 5288 5286 5285 5283 5282 5280 5279 5277 5276 5275 5274 5272 5271 5270 5269 5268 5267 5266 5265 5264
5385 5382 5380 5378 5376 5374 5371 5369 5367 5365 5363 5361 5359 5357 5355 5354 5352 5350 5349 5347 5346 5344 5342 5341 5339 5338 5337 5335 5333 5331 5329 5327 5325 5325 5324 5323 5322 5321 5319 5318 5316 5316 5315 5313 5312 5310 5308 5307 5306 5306 5305 5304 5303 5302 5301 5300 5299 5297 5296 5295 5294 5292 5291 5290 5288 5287 5286 5284 5282 5281 5279 5278 5276 5275 5274 5273 5271 5271 5269 5268 5267 5266 5265 5264 5263 5262
5382 5380 5377 5375 5373 5371 5369 5366 5364 5362 5360 5358 5356 5354 5352 5351 5349 5347 5346 5344 5343 5341 5339 5338 5336 5335 5334 5332 5331 5329 5326 5324 5322 5321 5321 5320 5319 5317 5316 5314 5313 5312 5311 5310 5309 5307 5305 5303 5303 5302 5302 5301 5300 5299 5298 5297 5296 5295 5293 5292 5291 5289 5288 5287 5286 5284 5283 5281 5280 5278 5276 5275 5274 5273 5271 5271 5270 5269 5267 5266 5266 5264 5263 5262 5261 5261
5379 5376 5374 5372 5370 5368 5366 5363 5361 5359 5357 5355 5353 5351 5349 5348 5346 5345 5343 5341 5340 5338 5336 5335 5333 5332 5330 5329 5328 5326 5324 5321 5319 5318 5317 5316 5315 5314 5313 5311 5310 5308 5307 5306 5306 5305 5302 5300 5299 5298 5298 5297 5296 5296 5295 5294 5293 5291 5290 5289 5288 5286 5285 5284 5283 5282 5280 5279 5277 5276 5274 5273 5271 5271 5269 5268 5267 5266 5266 5265 5264 5262 5261 5261 5260 5259
5376 5374 5371 5369 5367 5365 5363 5361 5358 5356 5354 5352 5350 5348 5346 5345 5343 5342 5340 5338 5337 5336 5334 5332 5331 5329 5327 5326 5325 5323 5321 5319 5317 5315 5314 5313 5312 5311 5310 5308 5306 5305 5304 5303 5303 5302 5301 5298 5296 5294 5294 5293 5293 5292 5291 5291 5290 5289 5288 5286 5285 5284 5282 5281 5280 5279 5277 5276 5274 5273 5271 5271 5269 5268 5267 5266 5266 5265 5264 5262 5261 5260 5260 5259 5258 5257
5374 5371 5369 5366 5364 5362 5360 5358 5356 5354 5352 5350 5348 5346 5344 5342 5341 5339 5337 5336 5334 5333 5331 5330 5328 5326 5325 5323 5322 5320 5318 5316 5314 5313 5312 5311 5310 5308 5307 5306 5304 5302 5301 5300 5299 5298 5298 5296 5294 5292 5291 5290 5289 5289 5288 5288 5287 5286 5285 5284 5282 5281 5280 5278 5277 5276 5275 5274 5272 5271 5269 5268 5267 5266 5266 5265 5264 5262 5261 5260 5259 5258 5257 5256 5256 5255
5371 5368 5366 5364 5361 5359 5357 5355 5353 5351 5349 5347 5346 5344 5342 5340 5338 5336 5335 5333 5331 5330 5329 5327 5326 5324 5322 5321 5319 5317 5315 5313 5311 5310 5309 5308 5307 5306 5304 5303 5301 5300 5298 5297 5296 5295 5294 5293 5292 5290 5288 5287 5286 5285 5285 5284 5284 5283 5282 5281 5280 5279 5277 5276 5275 5274 5273 5271 5270 5269 5267 5266 5266 5265 5264 5262 5261 5260 5259 5258 5257 5256 5254 5254 5253 5252
5368 5366 5363 5361 5359 5357 5355 5353 5351 5349 5347 5345 5343 5341 5340 5338 5336 5334 5332 5331 5329 5327 5326 5325 5323 5321 5320 5319 5317 5316 5313 5311 5309 5307 5306 5305 5304 5302 5301 5300 5298 5297 5296 5294 5293 5292 5291 5290 5289 5288 5286 5285 5283 5282 5281 5281 5281 5281 5280 5279 5278 5276 5275 5274 5273 5272 5271 5269 5268 5266 5266 5265 5264 5263 5262 5261 5259 5258 5257 5256 5254 5253 5252 5251 5250 5249
5366 5363 5361 5359 5357 5355 5352 5351 5349 5347 5345 5343 5341 5340 5338 5336 5334 5332 5331 5329 5327 5325 5323 5322 5321 5319 5317 5316 5315 5313 5311 5309 5307 5305 5303 5302 5301 5300 5299 5297 5295 5294 5293 5291 5291 5289 5288 5287 5286 5285 5284 5283 5281 5280 5279 5278 5278 5277 5277 5276 5275 5274 5273 5271 5271 5270 5268 5267 5266 5265 5263 5262 5262 5261 5260 5259 5257 5256 5255 5253 5252 5251 5249 5248 5247 5246
5363 5361 5359 5357 5355 5353 5351 5348 5346 5345 5343 5341 5339 5337 5336 5334 5332 5331 5329 5326 5325 5323 5321 5320 5318 5316 5315 5313 5312 5311 5309 5307 5305 5303 5301 5300 5298 5297 5296 5294 5293 5291 5290 5289 5288 5287 5286 5285 5283 5282 5281 5280 5279 5278 5276 5275 5275 5274 5274 5273 5272 5271 5270 5269 5268 5267 5266 5265 5264 5262 5261 5261 5260 5259 5258 5257 5255 5254 5252 5251 5250 5248 5246 5245 5244 5242
5361 5359 5357 5355 5353 5351 5349 5347 5345 5343 5341 5339 5337 5336 5334 5332 5331 5328 5326 5325 5323 5321 5319 5317 5316 5314 5312 5310 5309 5308 5306 5305 5303 5301 5299 5297 5296 5295 5293 5292 5290 5289 5287 5286 5285 5284 5283 5282 5281 5280 5279 5278 5277 5276 5275 5273 5272 5272 5271 5271 5270 5269 5267 5266 5265 5264 5263 5262 5261 5261 5260 5259 5258 5257 5256 5255 5253 5252 5251 5249 5247 5246 5244 5243 5241 5240
5359 5357 5355 5353 5351 5349 5347 5345 5343 5341 5339 5338 5336 5334 5332 5331 5329 5326 5325 5323 5321 5319 5317 5316 5314 5312 5310 5308 5306 5305 5303 5302 5301 5299 5297 5295 5294 5292 5291 5289 5288 5286 5285 5283 5282 5281 5280 5279 5279 5278 5277 5276 5275 5274 5272 5271 5270 5270 5269 5268 5267 5266 5265 5264 5263 5262 5261 5260 5260 5259 5258 5257 5256 5255 5254 5253 5251 5250 5248 5247 5246 5244 5242 5241 5239 5237
5357 5355 5353 5351 5349 5347 5345 5343 5341 5340 5338 5336 5334 5332 5331 5329 5327 5325 5323 5321 5319 5317 5316 5314 5312 5310 5308 5306 5304 5302 5301 5299 5298 5296 5295 5293 5291 5290 5289 5287 5285 5284 5282 5281 5280 5278 5277 5276 5276 5275 5275 5274 5273 5271 5270 5269 5268 5267 5267 5266 5266 5264 5263 5261 5261 5260 5259 5258 5258 5257 5256 5256 5255 5253 5252 5251 5249 5248 5246 5245 5244 5242 5240 5239 5237 5235
5356 5354 5352 5350 5348 5346 5344 5342 5340 5338 5336 5334 5332 5331 5329 5327 5325 5323 5321 5319 5317 5315 5313 5312 5310 5308 5306 5304 5302 5300 5298 5297 5296 5294 5292 5291 5289 5287 5286 5284 5283 5281 5280 5279 5277 5276 5275 5274 5273 5272 5272 5271 5271 5269 5268 5267 5266 5265 5265 5265 5264 5262 5261 5260 5259 5258 5257 5257 5256 5256 5255 5254 5253 5251 5250 5249 5247 5246 5244 5243 5241 5240 5238 5236 5234 5232
5355 5352 5351 5348 5346 5344 5342 5340 5338 5336 5334 5332 5331 5329 5327 5325 5323 5321 5319 5317 5315 5313 5311 5310 5308 5306 5304 5302 5300 5298 5296 5294 5293 5291 5290 5289 5287 5285 5283 5282 5280 5279 5278 5276 5275 5274 5272 5271 5270 5270 5269 5268 5268 5267 5266 5265 5264 5263 5263 5262 5262 5261 5260 5259 5257 5256 5256 5256 5255 5254 5253 5252 5251 5250 5248 5247 5245 5244 5242 5241 5239 5237 5236 5233 5232 5230
5354 5351 5349 5347 5345 5343 5341 5338 5336 5334 5332 5330 5328 5327 5325 5323 5321 5320 5318 5316 5314 5312 5310 5308 5307 5305 5303 5301 5298 5296 5294 5292 5291 5289 5288 5286 5285 5283 5281 5280 5278 5276 5275 5274 5273 5272 5271 5269 5268 5267 5267 5266 5266 5265 5264 5263 5262 5261 5261 5261 5260 5260 5259 5257 5256 5255 5255 5254 5253 5252 5251 5251 5250 5248 5247 5245 5244 5242 5240 5238 5237 5235 5233 5231 5229 5227
5353 5351 5348 5346 5344 5341 5339 5337 5335 5332 5330 5328 5326 5324 5322 5321 5319 5317 5315 5313 5311 5310 5308 5306 5305 5303 5301 5300 5297 5295 5292 5290 5288 5287 5285 5284 5282 5281 5279 5277 5276 5274 5273 5272 5271 5269 5269 5267 5266 5266 5265 5264 5263 5262 5262 5261 5260 5260 5259 5259 5258 5258 5257 5256 5255 5254 5253 5252 5251 5251 5250 5249 5248 5246 5245 5244 5242 5240 5239 5237 5235 5233 5231 5228 5226 5224
5352 5349 5347 5345 5342 5340 5337 5335 5333 5331 5328 5326 5324 5322 5320 5318 5316 5314 5312 5311 5309 5307 5305 5303 5302 5301 5299 5297 5296 5294 5291 5289 5287 5285 5283 5282 5280 5279 5277 5275 5274 5272 5270 5269 5268 5267 5266 5266 5265 5264 5263 5262 5261 5260 5260 5259 5259 5258 5257 5257 5256 5256 5255 5254 5253 5252 5252 5251 5250 5249 5248 5247 5246 5245 5244 5242 5240 5239 5237 5235 5233 5231 5228 5226 5224 5222
5351 5348 5346 5343 5341 5338 5336 5334 5331 5329 5326 5324 5322 5320 5317 5315 5313 5311 5309 5308 5306 5304 5302 5301 5299 5297 5296 5294 5293 5291 5290 5288 5286 5284 5282 5280 5279 5277 5275 5273 5272 5270 5268 5267 5266 5265 5264 5263 5262 5262 5261 5260 5259 5258 5258 5257 5257 5256 5256 5256 5255 5254 5254 5253 5252 5251 5250 5250 5249 5248 5246 5246 5245 5244 5242 5241 5239 5237 5235 5233 5231 5229 5226 5224 5222 5221
5350 5347 5345 5342 5340 5337 5335 5332 5330 5327 5325 5322 5320 5317 5315 5313 5311 5309 5307 5305 5303 5301 5299 5298 5296 5294 5293 5291 5290 5289 5287 5286 5285 5283 5281 5279 5277 5276 5274 5272 5270 5269 5267 5265 5264 5263 5262 5261 5261 5260 5260 5259 5258 5256 5256 5256 5255 5255 5255 5254 5254 5253 5252 5251 5251 5250 5249 5248 5247 5246 5245 5244 5243 5242 5241 5239 5237 5235 5233 5231 5229 5226 5225 5223 5221 5219
5348 5346 5343 5341 5338 5336 5333 5331 5328 5326 5323 5320 5318 5315 5313 5310 5308 5306 5304 5302 5300 5298 5296 5295 5293 5291 5290 5288 5287 5286 5285 5284 5282 5281 5280 5278 5277 5275 5273 5271 5269 5267 5266 5264 5262 5261 5260 5259 5259 5258 5258 5257 5256 5255 5254 5254 5254 5253 5253 5253 5252 5251 5251 5250 5249 5248 5248 5247 5246 5245 5244 5243 5242 5241 5239 5238 5236 5233 5231 5229 5227 5225 5223 5221 5219 5217
5347 5345 5342 5340 5337 5335 5332 5329 5327 5324 5321 5319 5316 5313 5311 5308 5306 5304 5302 5300 5298 5296 5294 5292 5291 5289 5287 5286 5284 5283 5282 5281 5280 5279 5278 5277 5276 5274 5272 5270 5268 5266 5265 5263 5261 5259 5258 5257 5256 5256 5256 5256 5255 5254 5253 5253 5252 5252 5252 5251 5251 5250 5249 5249 5248 5247 5246 5246 5245 5244 5243 5242 5241 5240 5238 5236 5234 5232 5230 5227 5225 5223 5221 5219 5217 5215
5346 5344 5341 5339 5336 5333 5330 5328 5325 5322 5320 5317 5314 5311 5309 5306 5304 5301 5299 5297 5295 5293 5291 5290 5288 5286 5285 5283 5282 5281 5280 5278 5277 5276 5275 5274 5273 5272 5271 5269 5267 5266 5264 5262 5260 5258 5257 5255 5254 5254 5254 5254 5254 5253 5252 5252 5251 5251 5251 5250 5250 5249 5248 5248 5247 5246 5245 5244 5244 5243 5242 5241 5240 5239 5237 5235 5233 5231 5228 5226 5224 5222 5220 5217 5215 5213
5345 5342 5340 5337 5335 5331 5329 5326 5323 5321 5318 5315 5312 5310 5307 5304 5302 5300 5297 5295 5293 5291 5289 5287 5285 5284 5282 5281 5280 5278 5277 5276 5275 5274 5273 5272 5271 5270 5269 5268 5266 5265 5263 5261 5259 5258 5256 5254 5253 5252 5253 5253 5253 5252 5252 5251 5251 5250 5250 5249 5248 5248 5247 5247 5246 5245 5244 5243 5243 5242 5241 5240 5239 5237 5236 5234 5232 5230 5227 5225 5223 5221 5219 5216 5214 5211
5344 5341 5339 5336 5333 5330 5327 5324 5321 5319 5316 5313 5311 5308 5305 5303 5300 5298 5296 5293 5291 5289 5287 5285 5283 5281 5280 5279 5277 5276 5275 5274 5272 5271 5271 5270 5269 5268 5267 5266 5264 5263 5261 5260 5259 5257 5255 5254 5252 5251 5251 5251 5252 5251 5251 5251 5250 5249 5249 5248 5247 5247 5246 5246 5245 5244 5243 5242 5242 5241 5240 5239 5237 5236 5235 5233 5231 5229 5227 5225 5222 5220 5218 5216 5214 5211